Find STARLINK-37514

NORAD ID: 68899 Constellation: starlink operational
LEOCIRCULARRETROGRADE

实时位置

正在加载3D地球...

关于 STARLINK-37514

正在加载描述...

即将过境

Passes for default location (London). Set your location on the main map for personalized predictions.

高度历史

Loading altitude history...

两行轨道根数

1 68899U 26097E 26125.50001156 -.02273491 14290-2 -61348-2 0 9990
2 68899 97.2876 320.4876 0001564 85.4550 130.5616 15.94487694 2061
Epoch: May 5, 2026 • Age: 7 hours